User: anonymous   Login
Location: Oshawa
(43.9000°N, 78.8670°W)
Time: 02:32:22
(UTC-04:00)
Language:

Cosmos 839 Rocket - Orbit

View from above orbital plane
View from above orbital plane
View from above satellite
View from above satellite

Ground track
Ground track

The orbit data is extracted from the following two-line orbital elements,

1  9013U 76067B   16146.92632764 -.00000049 +00000-0 +22495-4 0  9996
2  9013 065.8677 038.2435 0719911 225.2788 214.5389 12.35322482798571
Epoch (UTC): 25 May 2016 22:13:54
Eccentricity: 0.0719911
inclination: 65.8677°
perigee height: 957 km
apogee height: 2095 km
right ascension of ascending node: 38.2435°
argument of perigee: 225.2788°
revolutions per day: 12.35322482
mean anomaly at epoch: 214.5389°
orbit number at epoch: 79857

The dashed part of the orbit path shows where the satellite is in the earth's shadow,  

DLR